GW2442 Weather Reports


Display with metric or nautical units.
time (UTC)temp
F
wind
direction
speed
MPH
gust
MPH
rain 1hr
in
rain 24hr
in
rain mn
in
humidity
%
barometer
mb
20260504060103 43 122 0.0 0.0 0.00 0.00 0.00 64 1010.5
20260504050531 44 128 0.0 0.0 0.00 0.00 0.00 60 1010.5
20260504045525 44 126 0.0 0.0 0.00 0.00 0.00 60 1010.3
20260504045020 44 141 0.0 0.0 0.00 0.00 0.00 60 1010.3
20260504044518 44 141 0.0 0.0 0.00 0.00 0.00 60 1010.4
20260504044015 44 142 0.0 0.0 0.00 0.00 0.00 59 1010.4
20260504043512 44 136 0.0 0.0 0.00 0.00 0.00 59 1010.3
20260504043010 44 130 0.0 0.0 0.00 0.00 0.00 59 1010.3
20260504042506 45 128 0.0 0.0 0.00 0.00 0.00 58 1010.1
20260504042003 45 147 0.0 2.0 0.00 0.00 0.00 56 1010.1
20260504041459 45 114 0.0 0.0 0.00 0.00 0.00 56 1010.1
20260504040955 45 112 0.0 1.0 0.00 0.00 0.00 55 1010.0
20260504040453 45 137 0.0 0.0 0.00 0.00 0.00 56 1010.0
20260504035948 45 136 0.0 0.0 0.00 0.00 0.00 56 1009.9
20260504035446 46 136 0.0 0.0 0.00 0.00 0.00 54 1010.0
20260504034943 46 136 0.0 0.0 0.00 0.00 0.00 54 1010.0
20260504034440 46 136 0.0 0.0 0.00 0.00 0.00 54 1009.9
20260504033937 46 136 0.0 1.0 0.00 0.00 0.00 54 1009.8
20260504033435 45 134 0.0 1.0 0.00 0.00 0.00 54 1009.8
20260504032932 45 134 0.0 0.0 0.00 0.00 0.00 56 1009.9
20260504032429 45 134 0.0 0.0 0.00 0.00 0.00 56 1009.8
20260504031925 45 133 0.0 0.0 0.00 0.00 0.00 56 1009.9
20260504031422 46 134 0.0 0.0 0.00 0.00 0.00 55 1009.9
20260504030919 46 134 0.0 0.0 0.00 0.00 0.00 56 1009.9
20260504030416 46 133 0.0 0.0 0.00 0.00 0.00 54 1010.1
20260504025912 46 133 0.0 0.0 0.00 0.00 0.00 53 1009.9
20260504025409 46 116 0.0 0.0 0.00 0.00 0.00 52 1010.0
20260504024906 47 115 0.0 1.0 0.00 0.00 0.00 52 1010.1
20260504024403 47 139 0.0 0.0 0.00 0.00 0.00 51 1009.9
20260504023900 47 149 0.0 1.0 0.00 0.00 0.00 52 1009.9
20260504023356 47 149 0.0 0.0 0.00 0.00 0.00 50 1009.9
20260504022852 47 149 0.0 0.0 0.00 0.00 0.00 50 1009.9
20260504022349 47 149 0.0 0.0 0.00 0.00 0.00 50 1009.9
20260504021845 47 149 0.0 1.0 0.00 0.00 0.00 50 1010.1
20260504021343 47 148 0.0 0.0 0.00 0.00 0.00 50 1009.9
20260504020840 47 148 0.0 0.0 0.00 0.00 0.00 51 1009.9
20260504020336 47 148 0.0 0.0 0.00 0.00 0.00 52 1009.8
20260504015832 48 153 1.0 1.0 0.00 0.00 0.00 50 1009.9
20260504015329 48 140 0.0 0.0 0.00 0.00 0.00 49 1009.7
20260504014825 47 141 0.0 0.0 0.00 0.00 0.00 52 1009.8
20260504014321 48 141 0.0 1.0 0.00 0.00 0.00 52 1009.7
20260504013819 48 136 1.0 1.0 0.00 0.00 0.00 50 1009.7
20260504013317 48 125 0.0 0.0 0.00 0.00 0.00 51 1009.8
20260504012813 48 125 0.0 0.0 0.00 0.00 0.00 51 1009.5
20260504012311 48 124 0.0 0.0 0.00 0.00 0.00 50 1009.6
20260504011808 48 118 0.0 1.0 0.00 0.00 0.00 49 1009.5
20260504011304 48 125 0.0 0.0 0.00 0.00 0.00 48 1009.5
20260504010800 49 125 0.0 0.0 0.00 0.00 0.00 48 1009.5
20260504010256 49 125 0.0 0.0 0.00 0.00 0.00 47 1009.4
20260504005753 49 125 0.0 0.0 0.00 0.00 0.00 46 1009.4
20260504005250 49 125 0.0 1.0 0.00 0.00 0.00 47 1009.3
20260504004748 49 124 0.0 0.0 0.00 0.00 0.00 47 1009.2
20260504004245 50 124 0.0 0.0 0.00 0.00 0.00 46 1009.1
20260504003741 50 147 0.0 0.0 0.00 0.00 0.00 45 1009.1
20260504003238 50 147 0.0 0.0 0.00 0.00 0.00 45 1009.1
20260504002735 50 147 0.0 0.0 0.00 0.00 0.00 44 1009.2
20260504002231 50 146 0.0 1.0 0.00 0.00 0.00 45 1009.0
20260504001730 51 127 0.0 0.0 0.00 0.00 0.00 44 1009.0
20260504001226 51 127 0.0 1.0 0.00 0.00 0.00 43 1009.0
20260504000723 52 141 0.0 1.0 0.00 0.00 0.00 43 1008.9
20260504000220 52 156 0.0 1.0 0.00 0.00 0.00 41 1008.9
20260503235718 52 144 0.0 1.0 0.00 0.00 0.00 40 1008.8
20260503235215 53 142 0.0 0.0 0.00 0.00 0.00 40 1008.8
20260503234713 53 151 0.0 0.0 0.00 0.00 0.00 39 1008.8
20260503234211 54 151 0.0 2.0 0.00 0.00 0.00 39 1008.7
20260503233708 54 115 0.0 0.0 0.00 0.00 0.00 38 1008.6
20260503233203 55 133 0.0 1.0 0.00 0.00 0.00 38 1008.6
20260503232700 55 130 0.0 1.0 0.00 0.00 0.00 36 1008.6
20260503232157 55 115 0.0 2.0 0.00 0.00 0.00 37 1008.5
20260503231656 56 155 0.0 6.0 0.00 0.00 0.00 36 1008.6
20260503231151 56 242 2.0 6.0 0.00 0.00 0.00 35 1008.6
20260503230648 56 172 2.0 2.0 0.00 0.00 0.00 34 1008.4
20260503230145 57 195 3.0 6.0 0.00 0.00 0.00 34 1008.3
20260503225643 57 169 1.0 3.0 0.00 0.00 0.00 34 1008.3
20260503225143 57 250 3.0 3.0 0.00 0.00 0.00 34 1008.3
20260503224640 58 293 4.0 6.0 0.00 0.00 0.00 32 1008.6
20260503224138 58 26 2.0 3.0 0.00 0.00 0.00 33 1008.4
20260503223636 58 35 2.0 5.0 0.00 0.00 0.00 32 1008.2
20260503223132 57 308 5.0 7.0 0.00 0.00 0.00 32 1008.3
20260503222629 58 224 3.0 5.0 0.00 0.00 0.00 33 1008.4
20260503222127 57 9 3.0 7.0 0.00 0.00 0.00 32 1008.2
20260503221625 58 326 5.0 9.0 0.00 0.00 0.00 31 1008.4
20260503221122 57 344 4.0 8.0 0.00 0.00 0.00 34 1008.5
20260503220619 57 351 5.0 9.0 0.00 0.00 0.00 33 1008.3
20260503220115 57 232 3.0 5.0 0.00 0.00 0.00 32 1008.5
20260503215612 58 214 2.0 7.0 0.00 0.00 0.00 31 1008.2
20260503215109 57 35 2.0 5.0 0.00 0.00 0.00 31 1008.2
20260503214608 58 327 3.0 7.0 0.00 0.00 0.00 30 1008.2
20260503214103 57 357 2.0 8.0 0.00 0.00 0.00 32 1008.1
20260503213603 58 4 4.0 7.0 0.00 0.00 0.00 30 1008.3
20260503213058 59 41 2.0 7.0 0.00 0.00 0.00 30 1007.7
20260503212556 59 338 2.0 3.0 0.00 0.00 0.00 30 1008.0
20260503212053 59 310 3.0 7.0 0.00 0.00 0.00 31 1008.0
20260503211550 58 336 4.0 7.0 0.00 0.00 0.00 29 1007.8
20260503211045 59 315 3.0 5.0 0.00 0.00 0.00 31 1007.8
20260503210543 58 13 2.0 5.0 0.00 0.00 0.00 29 1008.0
20260503210038 58 66 3.0 9.0 0.00 0.00 0.00 31 1008.1
20260503205535 59 323 5.0 8.0 0.00 0.00 0.00 28 1008.2
20260503205032 58 157 3.0 6.0 0.00 0.00 0.00 30 1007.7
20260503204529 58 354 4.0 6.0 0.00 0.00 0.00 29 1008.2
20260503204026 59 254 5.0 8.0 0.00 0.00 0.00 27 1008.0
20260503203523 60 344 6.0 8.0 0.00 0.00 0.00 27 1008.2
20260503203020 59 258 3.0 9.0 0.00 0.00 0.00 30 1008.1
20260503202518 59 49 3.0 9.0 0.00 0.00 0.00 29 1008.0
20260503202016 58 59 1.0 5.0 0.00 0.00 0.00 32 1008.1
20260503201514 59 40 4.0 7.0 0.00 0.00 0.00 28 1008.3
20260503201011 59 337 7.0 8.0 0.00 0.00 0.00 29 1008.1
20260503200507 59 332 1.0 10.0 0.00 0.00 0.00 28 1008.4
20260503200004 58 291 3.0 6.0 0.00 0.00 0.00 30 1008.3
20260503195501 58 55 4.0 6.0 0.00 0.00 0.00 31 1008.2
20260503194957 57 348 5.0 8.0 0.00 0.00 0.00 30 1008.4
20260503194455 58 348 5.0 7.0 0.00 0.00 0.00 29 1008.6
20260503193949 56 151 2.0 7.0 0.00 0.00 0.00 33 1008.5
20260503193445 56 326 6.0 14.0 0.00 0.00 0.00 31 1008.4
20260503192941 56 290 4.0 11.0 0.00 0.00 0.00 31 1008.6
20260503192438 57 29 3.0 10.0 0.00 0.00 0.00 30 1008.6
20260503191933 57 353 6.0 13.0 0.00 0.00 0.00 30 1008.7
20260503191431 56 36 6.0 8.0 0.00 0.00 0.00 30 1008.6
20260503190927 56 48 3.0 6.0 0.00 0.00 0.00 31 1008.7
20260503190425 56 260 6.0 9.0 0.00 0.00 0.00 31 1008.6
20260503185922 56 220 3.0 8.0 0.00 0.00 0.00 30 1008.6
20260503185418 56 314 3.0 8.0 0.00 0.00 0.00 31 1008.8
20260503184917 56 318 6.0 8.0 0.00 0.00 0.00 31 1008.9
20260503184414 56 36 6.0 11.0 0.00 0.00 0.00 29 1009.0
20260503183910 55 82 5.0 15.0 0.00 0.00 0.00 32 1009.2
20260503183407 55 55 3.0 6.0 0.00 0.00 0.00 32 1009.2
20260503182904 53 173 3.0 5.0 0.00 0.00 0.00 35 1009.3
20260503182403 57 5 6.0 13.0 0.00 0.00 0.00 32 1009.2
20260503181900 55 326 4.0 5.0 0.00 0.00 0.00 33 1009.3
20260503181357 54 343 9.0 11.0 0.00 0.00 0.00 32 1009.3
20260503180853 55 358 6.0 9.0 0.00 0.00 0.00 32 1009.4
20260503180351 54 330 3.0 8.0 0.00 0.00 0.00 34 1009.2
20260503175847 54 315 10.0 11.0 0.00 0.00 0.00 32 1009.2
20260503175345 53 19 3.0 8.0 0.00 0.00 0.00 37 1009.4
20260503174841 51 340 4.0 16.0 0.00 0.00 0.00 35 1009.6
20260503174339 52 2 4.0 7.0 0.00 0.00 0.00 35 1009.3
20260503173834 52 7 4.0 9.0 0.00 0.00 0.00 36 1009.4
20260503173331 51 28 3.0 5.0 0.00 0.00 0.00 37 1009.5
20260503172827 53 317 4.0 7.0 0.00 0.00 0.00 35 1009.6
20260503172325 53 21 3.0 6.0 0.00 0.00 0.00 36 1009.7
20260503171821 52 15 5.0 9.0 0.00 0.00 0.00 36 1009.6
20260503171318 50 308 5.0 7.0 0.00 0.00 0.00 38 1009.7
20260503170815 52 265 4.0 7.0 0.00 0.00 0.00 35 1009.8
20260503170312 50 335 6.0 10.0 0.00 0.00 0.00 38 1009.6
20260503150704 45 65 0.0 5.0 0.00 0.00 0.00 50 1010.5
20260503150200 45 284 2.0 6.0 0.00 0.00 0.00 49 1010.3
20260503140125 44 44 3.0 3.0 0.00 0.00 0.00 57 1010.6
20260503131054 44 346 4.0 7.0 0.00 0.00 0.00 57 1010.5
20260503130551 44 78 1.0 5.0 0.00 0.00 0.00 58 1010.5
20260503110442 39 161 1.0 2.0 0.00 0.00 0.00 72 1009.8
20260503090332 39 319 2.0 3.0 0.00 0.00 0.00 69 1008.8
20260503081300 40 336 3.0 7.0 0.00 0.00 0.00 66 1008.9
20260503080756 40 64 3.0 5.0 0.00 0.00 0.00 66 1009.0
20260503080254 40 63 1.0 3.0 0.00 0.00 0.00 66 1008.8
20260503072730 41 353 1.0 3.0 0.00 0.00 0.00 63 1008.7
20260503072227 41 93 1.0 2.0 0.00 0.00 0.00 64 1008.7
20260503071723 41 55 1.0 3.0 0.00 0.00 0.00 62 1008.5
20260503071220 41 81 0.0 2.0 0.00 0.00 0.00 63 1008.7
20260503070717 41 25 2.0 3.0 0.00 0.00 0.00 61 1008.6
20260503070215 41 47 2.0 2.0 0.00 0.00 0.00 61 1008.7